Portage Invitational 2012 vs Portage Invitational 2009

Aggregate Data Points
Difference This Meet That Meet
Overall Athletes -1028 2741 3769
Overall Average -48.24 20:31.80 21:20.03
1st-10th Place -9.93 15:30.64 15:40.57
1st-25th Place -7.92 15:42.82 15:50.74
1st-50th Place -10.19 15:52.92 16:03.11
1st-100th Place -10.28 16:07.59 16:17.87
Common Athletes -- -- 252
Ran Faster 173 214 41
Ran Season Best -163 89 252
Average Time -1:17.79 19:32.08 20:49.88
Median Time -1:33.50 18:51.80 20:25.30
Middle 80% Times -1:21.47 19:16.25 20:37.72
Top 10% Times -1:31.43 16:03.35 17:34.78
Top 25% Times -1:35.45 16:36.29 18:11.75
Top 50% Times -1:34.70 17:19.41 18:54.11
Bottom 50% Times -1:00.89 21:44.75 22:45.65
Bottom 25% Times -44.23 23:26.67 24:10.90
Bottom 10% Times -32.67 25:21.48 25:54.16
Average Difference -1:18.41 -- --
Median Difference -2:36.80 -- --
Middle 80% Difference -1:22.71 -- --
Top 10% Difference -1:05.00 -- --
Top 50% Difference -1:23.07 -- --
Top 25% Difference -1:15.65 -- --
Top 50% Difference -1:23.07 -- --
Bottom 50% Difference -1:12.17 -- --
Bottom 25% Difference -1:07.38 -- --
Bottom 10% Difference -1:04.04 -- --

Performances of Common Athletes
Athlete Team Difference This Meet That Meet
Jeff Bajema Grand Rapids Kenowa Hills -1:18.20 15:15.80 16:34.00
Bryce Stroede Hanover-Horton -2:48.40 15:37.30 18:25.70
Andrew Rylaarsdam Grandville Calvin Christian -3:51.30 15:41.90 19:33.20
Conrad Schultz Brownstown Woodhaven -3:14.00 15:49.80 19:03.80
Graham Elliott Linden -3:46.10 15:51.20 19:37.30
Mowgli Crosby Grand Rapids Forest Hills Eastern -2:40.70 15:52.90 18:33.60
Nick Vanderkooi Fremont Providence Christian (CLOSED) -1:07.30 15:54.00 17:01.30
Brandon Winter Ionia -1:15.00 15:55.40 17:10.40
Brennan Shafer St. Clair -1:05.40 15:56.00 17:01.40
Joe Wendorf Dexter -2:11.50 15:57.00 18:08.50
Matt Greve Dexter -1:25.30 15:58.00 17:23.30
Brice Brown Ionia -1:59.20 15:58.60 17:57.80
Drew Woznick Rockford -1:38.10 15:58.90 17:37.00
Sean Kelly Saugatuck -1:20.10 15:59.10 17:19.20
Austin Benoit Rockford -1:34.40 16:03.60 17:38.00
Austin Horn Chelsea -6:13.20 16:05.50 22:18.70
Ryan Leahy St. Joseph -1:34.80 16:13.00 17:47.80
Michael Myers Kalamazoo Hackett -2:24.00 16:15.40 18:39.40
Alec Armstrong Stockbridge -1:11.60 16:17.90 17:29.50
Alec Sullivan Portage Northern -1:44.50 16:18.40 18:02.90
Grant Aman Rockford -2:23.00 16:19.10 18:42.10
Ethan Carigon Grand Rapids Forest Hills Eastern -1:35.00 16:21.20 17:56.20
Collin Jack Grand Rapids Forest Hills Northern -3:09.60 16:22.30 19:31.90
Jacob Chovaz North Muskegon -30.50 16:26.40 16:56.90
Nathan Vorwerck Bay City Western -1:15.30 16:27.80 17:43.10
Craig Hedges Grand Rapids Forest Hills Northern -2:17.70 16:30.70 18:48.40
Jake Holwerda Hudsonville -53.50 16:30.70 17:24.20
Zach Lemieux Linden -3:38.60 16:33.40 20:12.00
Nate Kimble DeWitt -1:59.80 16:36.10 18:35.90
Ben Wexler Temperance-Bedford -1:08.70 16:37.90 17:46.60
Parker Saenz Concord -1:30.80 16:39.30 18:10.10
Jeff Peterson Grand Rapids Christian -2:36.70 16:40.40 19:17.10
Norman Emineth Potterville -2:07.10 16:43.40 18:50.50
Blake Loudermilk Dexter -2:15.50 16:45.50 19:01.00
Mike Hauke Dexter -2:01.60 16:45.50 18:47.10
Blake Wilson Battle Creek Lakeview -1:52.90 16:45.80 18:38.70
Nick Tarsa Traverse City Central -2:06.20 16:46.50 18:52.70
Greg Trierweiler Pewamo-Westphalia -1:04.70 16:48.80 17:53.50
Kyle Susalla Linden -2:27.80 16:51.20 19:19.00
Will Swain Grand Haven -27.20 16:53.00 17:20.20
John Dood Grand Rapids Forest Hills Northern -3:05.40 16:54.70 20:00.10
Kieran Hall Traverse City West -59.30 16:57.70 17:57.00
Jarryd Calhoun Delton Kellogg -2:54.10 16:58.90 19:53.00
Davis Smith Pinckney -2:21.20 16:59.60 19:20.80
Sam Sly Richland Gull Lake -1:39.90 17:00.80 18:40.70
Austin Vanlaar Caledonia -2:17.60 17:03.30 19:20.90
Jeremy Simon Richland Gull Lake -26.30 17:03.50 17:29.80
Adam Cichon East Kentwood -49.70 17:05.60 17:55.30
Kage Johnson Jonesville -1:18.30 17:07.20 18:25.50
Connor Bresnahan Kalamazoo Hackett -1:49.00 17:08.50 18:57.50
Dan Fonte Ann Arbor Pioneer -4:40.10 17:09.00 21:49.10
Evan Harrison Grand Rapids Forest Hills Central -1:11.30 17:10.50 18:21.80
Adrian Taylor Linden -47.90 17:10.90 17:58.80
Ben Greaves Portage Central -1:07.80 17:12.60 18:20.40
Kevin Phelps Portage Central -3:19.10 17:14.00 20:33.10
Tyler Green Fremont -1:08.60 17:15.50 18:24.10
Hunter Reed Eau Claire -1:51.60 17:16.00 19:07.60
Lucas Combs Clare -1:34.20 17:16.90 18:51.10
Brian Wiegand Richland Gull Lake -4:03.30 17:17.10 21:20.40
Bryan Peoples Albion (CLOSED) -32.90 17:19.00 17:51.90
Julia Bos Grand Rapids Christian -1:21.10 17:19.10 18:40.20
Mark Cruickshank Rockford -2:08.80 17:19.70 19:28.50
Boris Burman Ann Arbor Pioneer -1:15.20 17:21.60 18:36.80
Austin Carlson Eau Claire -1:19.50 17:21.80 18:41.30
Ben Snow Richland Gull Lake -2:09.80 17:22.10 19:31.90
Logan Smith Temperance-Bedford -1:31.50 17:23.50 18:55.00
Matthew Devree Jenison -4:46.70 17:24.20 22:10.90
Ben Heriford Grand Ledge -2:07.70 17:25.50 19:33.20
Jacob Hop Grandville Calvin Christian -2:21.40 17:27.50 19:48.90
Daniel Newhouse Vicksburg -57.30 17:28.10 18:25.40
Ian Carter Wayland Union -2:02.20 17:28.90 19:31.10
Paul Rankin Grass Lake -33.90 17:29.20 18:03.10
Tate Miller Hastings -3:53.90 17:33.80 21:27.70
Neil Bultman Grandville Calvin Christian -1:26.30 17:34.90 19:01.20
Daniel Ludema Byron Center -2:33.30 17:35.30 20:08.60
Charlie Miller Chelsea -2:31.50 17:36.20 20:07.70
Acer Xu Ann Arbor Huron -1:47.50 17:36.70 19:24.20
Nate Knoth Hudsonville -1:22.40 17:37.30 18:59.70
Nick Ellison Grant -1:23.20 17:38.20 19:01.40
Nathan Vance Holland Christian -4:50.80 17:40.40 22:31.20
Colin Mclaughlin Grand Rapids Forest Hills Central -2:45.90 17:41.10 20:27.00
Johnny Ackley Traverse City Central -48.80 17:41.40 18:30.20
Alex Kraft Suttons Bay -2:00.90 17:42.20 19:43.10
Nathan Piersma Grandville Calvin Christian -2:56.50 17:46.80 20:43.30
Connor Galligan Spring Lake -1:45.50 17:47.10 19:32.60
Tyler Bannhard Grand Ledge -1:21.20 17:47.70 19:08.90
Zach Stoner Portage Central -1:17.20 17:48.00 19:05.20
Kyle Losey Stockbridge +8.70 17:59.20 17:50.50
Josh Hutchinson Shepherd -50.40 17:53.10 18:43.50
Dillon Murray Hillsdale Academy -2:21.50 17:54.00 20:15.50
Brandon Enders Bridgman -1:00.20 17:54.90 18:55.10
Andrew Levy Kalamazoo Loy Norrix -4:15.10 17:56.50 22:11.60
Theo Haubold Hartford -3:29.00 17:56.60 21:25.60
Zak Vruwink Hudsonville Unity Christian +17.40 18:15.10 17:57.70
Ryan Galligan Spring Lake -2:36.80 17:59.10 20:35.90
Robby Frakes Ann Arbor Pioneer -1:34.90 17:59.30 19:34.20
Parker Eldred Blanchard Montabella -1:04.40 18:02.00 19:06.40
Isaac Pringle Hanover-Horton -1:21.00 18:02.10 19:23.10
Avery Evenson Hartland -5.90 18:03.00 18:08.90
Jacob Hufstedler Centreville -2:25.50 18:04.00 20:29.50
Nate Jansen Grand Rapids South Christian -1:56.00 18:04.90 20:00.90
Sam Freestone Saugatuck -2:08.70 18:06.60 20:15.30
Peter Colquhoun Battle Creek Lakeview -1:10.10 18:07.80 19:17.90
Jonathan Coyne Grand Rapids Forest Hills Northern -31.50 18:08.20 18:39.70
Abel Devries Grandville Calvin Christian -4:17.50 18:08.90 22:26.40
Andrew Travis Shepherd +43.70 18:53.40 18:09.70
Matt Zenner Traverse City West -1:16.20 18:09.80 19:26.00
Andrew Barber Ann Arbor Huron -35.00 18:14.20 18:49.20
Daniel Vanoosterum Vicksburg -1:56.10 18:16.30 20:12.40
Galib Braschler Saugatuck -1:22.70 18:22.20 19:44.90
Joshua Hill Jenison -1:31.60 18:23.40 19:55.00
Clara Cullen Grand Rapids Forest Hills Eastern -1:46.30 18:24.50 20:10.80
Trent Witte Hudsonville Unity Christian -55.50 18:25.70 19:21.20
Derek Tulla Three Rivers -52.20 18:29.40 19:21.60
Sammy Mondry Grandville -3:02.40 18:36.40 21:38.80
Josh Vanwyhe Grandville Calvin Christian -1:28.80 18:36.60 20:05.40
Hannah Schroder Caledonia -2:25.30 18:37.10 21:02.40
Alex Prado Hesperia -29.40 18:37.10 19:06.50
Joe Lazzari Centreville -2:28.60 18:39.20 21:07.80
Megan Hubbard Hanover-Horton -46.00 18:42.00 19:28.00
Alyssa Cummings Saline -51.90 18:44.80 19:36.70
Ben Schimpf Battle Creek Lakeview -9.70 18:45.50 18:55.20
Kevin Stolarski Grand Haven -19.30 18:45.80 19:05.10
Caleb Pajersky East Kentwood -33.00 18:46.00 19:19.00
Tim Bueckman Caledonia +22.20 19:08.90 18:46.70
Logan Johnson Byron Center -4:53.80 18:49.20 23:43.00
Remy Whitehill Jonesville -2:56.70 18:49.50 21:46.20
Alex Eger Buchanan -31.20 18:51.30 19:22.50
Daniel Munoz Bangor -42.60 18:51.80 19:34.40
Ridge Derosia Grass Lake -1:53.80 18:53.20 20:47.00
Andrew Karttunen Potterville -53.20 18:55.00 19:48.20
Dean Strawsine Brownstown Woodhaven -20.30 19:02.40 19:22.70
Schmidt Alex Hudsonville Freedom Christian -30.90 19:02.90 19:33.80
Mike Hoodlebrink Stevensville-Lakeshore -14.10 19:02.90 19:17.00
Claudia Vredeveld Grand Rapids Forest Hills Northern -1:04.50 19:03.90 20:08.40
Benjamin Rudloff Constantine +20.20 19:29.40 19:09.20
Brandon Parsons Edwardsburg +46.60 19:57.20 19:10.60
Brance Baxter Battle Creek Lakeview -3:20.30 19:11.00 22:31.30
Drake Kempf Rockford -3:52.50 19:13.30 23:05.80
Jade Hubbard Kalamazoo Loy Norrix -2:11.70 19:13.60 21:25.30
Caleb Foura Constantine -1:50.80 19:14.10 21:04.90
Dino Pereira Brownstown Woodhaven -1:19.60 19:16.90 20:36.50
Ashley Jourdan Grandville Calvin Christian -3:11.50 19:20.40 22:31.90
Angela Ottenwess Grand Rapids Forest Hills Eastern -1:52.90 19:26.00 21:18.90
Alex Filiputti Kalamazoo Hackett +12.90 19:40.40 19:27.50
Elisabeth Soper Grand Rapids NorthPointe Christian -28.10 19:28.10 19:56.20
Paige Mckeon Okemos +1:03.60 20:39.40 19:35.80
Preston Zoellner Traverse City Central -3:02.80 19:38.30 22:41.10
Nick Dicarlo Pinckney +1:46.90 21:26.20 19:39.30
Megan Sanchez Hudsonville +20.80 20:00.20 19:39.40
Riley Crawford Clare -1:39.40 19:40.70 21:20.10
John Golob St. Joseph Lake Michigan Catholic +9.10 19:50.00 19:40.90
Megan Versen Grand Rapids Kenowa Hills -2:34.30 19:41.30 22:15.60
Leah Coonrod Richland Gull Lake -2:18.70 19:45.30 22:04.00
Ian Mcvey Jackson Lumen Christi -15.00 19:45.30 20:00.30
Austin Ford Bangor -1:34.00 19:46.20 21:20.20
Michael Perry Grand Haven -4:09.40 19:46.80 23:56.20
Rachel Bendewald St. Joseph -31.00 19:50.10 20:21.10
Joshua Kelly Bangor -2:22.90 19:50.10 22:13.00
Ben Peak Edwardsburg -1:48.10 19:50.20 21:38.30
Susan Hoffman East Grand Rapids -1:37.70 19:51.30 21:29.00
Thomas Dykstra Kalamazoo Christian -4:29.90 19:55.90 24:25.80
Isaac Roth Hillsdale -1:03.10 19:56.80 20:59.90
Zack Mccord Grand Ledge -2:05.00 19:58.00 22:03.00
Rylee Hanson Dexter -2:15.10 20:06.60 22:21.70
Roxanne Raven Okemos -50.80 20:11.40 21:02.20
Melanie Fox Grand Rapids Christian -1:21.30 20:17.50 21:38.80
Zachary Diephouse Grand Haven -1:02.20 20:20.10 21:22.30
Miranda Besey Benzie Central +1:40.40 22:02.60 20:22.20
Claire Schaar Fremont -2:20.10 20:23.80 22:43.90
Brittany Williams Newaygo +22.40 20:47.70 20:25.30
Shaley Albaugh Hillsdale Academy -41.70 20:29.40 21:11.10
Carlie Snoap Grandville -15.80 20:30.20 20:46.00
William Ryan Constantine -1:03.40 20:30.70 21:34.10
Sydney Shewmaker Stevensville-Lakeshore +2:50.60 23:21.90 20:31.30
Jessica Mulder Holland Christian -50.10 20:32.50 21:22.60
Dillon Cook Hesperia +19.30 20:52.10 20:32.80
Zach Fogel Ann Arbor Pioneer +34.70 21:10.40 20:35.70
Sydnee Hubbard Concord +44.70 21:24.10 20:39.40
Jori Fell Richland Gull Lake +0.30 20:44.00 20:43.70
Anna Berkemeier Jackson Lumen Christi -33.70 20:45.30 21:19.00
Taylor Nowicki Kent City +3:12.60 23:58.70 20:46.10
Dylan Sonnevil Marcellus -1:10.20 20:54.70 22:04.90
Kate Lubben Holland Christian -3:00.60 20:55.70 23:56.30
Katlin Robinson Celina -48.50 20:55.80 21:44.30
Kaila Black DeWitt -1:53.20 20:58.10 22:51.30
Kasey Caulkins Hillsdale -5.90 21:00.30 21:06.20
Rachael Laage Grand Rapids Forest Hills Central +1:01.20 22:01.90 21:00.70
Sarah Benedict Portage Central -2:23.30 21:01.90 23:25.20
Sarah Subject Leslie +1:47.00 22:49.00 21:02.00
Pat Wheatley Buchanan -26.40 21:03.10 21:29.50
Cody Mallo Constantine -3.50 21:09.70 21:13.20
Sarah Stigall Ionia -23.60 21:13.30 21:36.90
Claire Pabst DeWitt -2:26.20 21:16.70 23:42.90
Teri Laforest St. Joseph -25.40 21:17.00 21:42.40
Hollie Lewis Vicksburg -2:22.70 21:19.90 23:42.60
Katie Stein Hopkins -1:47.60 21:22.00 23:09.60
Leanne Leuthard Jackson Lumen Christi -13.60 21:22.80 21:36.40
Parker Sternberger Bear Lake -29.60 21:24.00 21:53.60
Anna Mydosh Jackson Lumen Christi +29.10 21:55.30 21:26.20
Larissa Umbleby Remus Chippewa Hills -36.50 21:27.60 22:04.10
Jennifer Dowsett St. Joseph -17.50 21:30.00 21:47.50
Mary Warsecke Benzie Central -1:14.10 21:31.30 22:45.40
Jacqueline Miller Jackson Lumen Christi -1:56.30 21:32.40 23:28.70
Nathan Koster Grandville -55.80 21:36.40 22:32.20
Hannah Peters Huntington North High School -33.90 21:36.90 22:10.80
Rebecca Bisson Grant +9.20 21:46.70 21:37.50
Stefany Tule Hartford -4:42.20 21:39.90 26:22.10
Duna Buttner Wayland Union +47.50 22:27.80 21:40.30
Rachael Armstrong Stevensville-Lakeshore +13.10 22:00.90 21:47.80
Jade Murzyn Saugatuck +56.80 22:46.90 21:50.10
Lauren Raap Wayland Union -2:43.50 21:50.50 24:34.00
Julia Moeggenborg Shepherd -1:11.90 21:54.70 23:06.60
Heidi Schreur Holland Christian -2:23.00 21:55.50 24:18.50
Kelsey Rochester Jackson Lumen Christi +20.20 22:20.80 22:00.60
Christina Craig Hillsdale Academy -57.30 22:01.80 22:59.10
Taylor Anderson Bear Lake -2:37.40 22:04.20 24:41.60
Alexis Keena Kingsley +1:05.50 23:10.80 22:05.30
Jordon Case Pinckney +21.70 22:30.60 22:08.90
Katelyn Keister Lawton -2:49.00 22:13.80 25:02.80
Taylor Cole Shepherd -40.20 22:18.50 22:58.70
Jessica Polum Schoolcraft +35.20 23:02.90 22:27.70
Allison Mitchell Buchanan +1:29.20 23:58.00 22:28.80
Ella Deaton St. Joseph Lake Michigan Catholic +3:48.20 26:17.20 22:29.00
Alicia Martin East Kentwood -17.00 22:32.00 22:49.00
Megan Lawrence Schoolcraft -16.80 22:35.10 22:51.90
Katie Prevost Jackson Lumen Christi -35.20 22:37.30 23:12.50
Grace Vanenk Creative Technical Academy -38.20 22:41.60 23:19.80
Brielle Johnson North Muskegon -1:09.00 22:57.10 24:06.10
Chandler Morris Grant -3:37.90 23:10.00 26:47.90
Paige Groom Potterville +1:08.10 24:22.10 23:14.00
Taylor Hannel Hillsdale Academy -1:59.80 23:21.00 25:20.80
Westra Alison Hudsonville Freedom Christian +20.30 23:50.20 23:29.90
Sadie Devoe Schoolcraft -33.00 23:36.30 24:09.30
Alexa Kinnison Kalamazoo Loy Norrix -2:54.40 23:36.30 26:30.70
Keely Dunigan Jackson Lumen Christi -2.30 23:37.70 23:40.00
Sara Melton Hartford -2:13.50 23:46.00 25:59.50
Kaylee Austin Kent City +7:56.40 31:44.00 23:47.60
Samantha Mullet Bear Lake +3:34.90 27:29.90 23:55.00
Sydnee Baker Comstock +5.40 24:26.50 24:21.10
Molly Egelkraut Delton Kellogg -4:59.10 24:47.90 29:47.00
Kylie Wirpio Grass Lake -4:03.60 24:50.50 28:54.10
Emma Thorbjornsen Bangor -14.90 24:59.10 25:14.00
Susan Gould Hopkins +5.90 25:06.00 25:00.10
Andrea Shumacher Hopkins -1:47.50 25:00.20 26:47.70
Cassie Savage Galesburg-Augusta +3:05.90 28:09.00 25:03.10
Erin Baumeister Hartford -53.40 25:17.30 26:10.70
Liz Jackson Delton Kellogg -37.60 25:38.70 26:16.30
Nick Watroba Brownstown Woodhaven -1:11.80 26:16.40 27:28.20
Molly Stephanak Kalamazoo Hackett +1:01.70 27:47.50 26:45.80
Amanda Shumacher Hopkins +0.60 26:49.30 26:48.70
Maggie Sikkama Comstock -1:25.00 27:10.90 28:35.90